Location: Widewater Village at Stafford
(38.4893°N, 77.3783°W)
Time: 11:03:30
(UTC+00:00)

Tiangong - Pass Details

Date: 29 November 2022
Orbit: 383 x 386 km, 41.5° (Epoch: 30 January)

Event Time Altitude Azimuth Distance (km) Brightness Sun altitude
Rises 22:32:47 0° 217° (SW) 2,245 2.8 -8.6°
Reaches altitude 10° 22:35:07 10° 201° (SSW) 1,397 1.3 -9.0°
Maximum altitude 22:37:38 22° 148° (SSE) 895 -0.4 -9.5°
Enters shadow 22:39:52 12° 99° (E) 1,305 0.0 -9.9°
